Location: Squirrel Cove
(50.1074°N, 124.9139°W)
Time: 00:57:08
(UTC-07:00)

PCSat - Visible Passes

Search period start: 20 May 2022 00:00
Search period end: 30 May 2022 00:00
Orbit: 784 x 795 km, 67.0° (Epoch: 19 May)

Date Brightness Start Highest point End Pass type
(mag) Time Alt. Az. Time Alt. Az. Time Alt. Az.
20 May 12.7 00:05:07 10° NNW 00:07:39 13° N 00:10:10 10° NNE visible
20 May 12.3 01:49:18 10° NNW 01:53:14 20° NNE 01:57:08 10° ENE visible
20 May 10.3 03:32:22 10° NNW 03:37:45 59° NE 03:43:06 10° SE visible
20 May 12.3 21:46:20 10° W 21:50:43 24° NNW 21:55:08 10° NNE visible
20 May 12.6 23:33:30 10° NW 23:36:07 13° N 23:38:44 10° NNE visible
21 May 12.4 01:18:12 10° NNW 01:21:47 17° NNE 01:25:22 10° ENE visible
21 May 10.7 03:01:17 10° NNW 03:06:33 47° NE 03:11:45 10° ESE visible
21 May 12.6 23:01:48 10° NW 23:04:36 14° N 23:07:25 10° NNE visible
22 May 12.4 00:47:04 10° NNW 00:50:19 16° NNE 00:53:34 10° NE visible
22 May 11.1 02:30:12 10° NNW 02:35:17 38° NE 02:40:19 10° ESE visible
22 May 9.8 04:13:36 10° NW 04:18:51 50° WSW 04:24:03 10° SSE visible
22 May 12.5 22:30:02 10° NW 22:33:06 15° NNW 22:36:11 10° NNE visible
23 May 12.4 00:15:53 10° NNW 00:18:50 14° NNE 00:21:48 10° NE visible
23 May 11.4 01:59:08 10° NNW 02:03:59 31° NE 02:08:48 10° E visible
23 May 9.5 03:42:23 10° NW 03:47:47 66° WSW 03:53:08 10° SSE visible
23 May 12.4 21:58:14 10° WNW 22:01:37 16° NNW 22:05:02 10° NNE visible
23 May 12.4 23:44:37 10° NNW 23:47:20 14° N 23:50:02 10° NE visible
24 May 11.7 01:28:04 10° NNW 01:32:38 26° NNE 01:37:12 10° E visible
24 May 9.5 03:11:13 10° NW 03:16:41 85° SW 03:22:07 10° SSE visible
24 May 12.4 23:13:15 10° NNW 23:15:49 13° N 23:18:22 10° NNE visible
25 May 11.9 00:57:00 10° NNW 01:01:16 23° NNE 01:05:32 10° E visible
25 May 9.7 02:40:05 10° NW 02:45:33 76° NE 02:50:59 10° SE visible
25 May 10.8 04:24:21 10° WNW 04:28:22 21° WSW 04:32:22 10° SSW visible
25 May 12.4 22:41:46 10° NNW 22:44:17 13° N 22:46:48 10° NNE visible
26 May 12.0 00:25:55 10° NNW 00:29:52 20° NNE 00:33:48 10° ENE visible
26 May 10.1 02:08:58 10° NNW 02:14:22 60° NE 02:19:44 10° SE visible
26 May 10.5 03:52:52 10° NW 03:57:26 28° WSW 04:01:59 10° SSW visible
26 May 12.4 22:10:10 10° NW 22:12:46 13° N 22:15:22 10° NNE visible
26 May 12.1 23:54:49 10° NNW 23:58:25 18° NNE 00:02:01 10° ENE visible
27 May 10.5 01:37:53 10° NNW 01:43:09 47° NE 01:48:24 10° ESE visible
27 May 10.1 03:21:29 10° NW 03:26:27 37° WSW 03:30:34 14° S visible
27 May 12.2 23:23:41 10° NNW 23:26:57 16° NNE 23:30:13 10° NE visible
28 May 10.9 01:06:48 10° NNW 01:11:54 38° NE 01:16:57 10° ESE visible
28 May 9.8 02:50:13 10° NW 02:55:26 49° WSW 02:59:09 19° S visible
28 May 12.2 22:52:30 10° NNW 22:55:28 15° NNE 22:58:26 10° NE visible
29 May 11.2 00:35:44 10° NNW 00:40:36 32° NE 00:45:26 10° E visible
29 May 9.6 02:19:00 10° NW 02:24:23 64° WSW 02:27:56 21° SSE visible
29 May 11.5 04:05:11 10° W 04:06:42 11° WSW 04:08:14 10° WSW visible
29 May 12.2 22:21:14 10° NNW 22:23:57 14° N 22:26:41 10° NE visible
